Regional Weather Roundup
Issued by NWS

Home | Current Version | Previous Version | Graphics & Text | Print | Product List | Glossary On
Versions: 1 2 3 4 5 6 7 8 9 10 11 12 13 14 15 16 17 18 19 20 21 22 23 24 25 26 27 28 29 30 31 32 33 34 35 36 37 38 39 40 41 42 43 44 45 46 47 48 49 50
000
ASUS43 KMPX 310210
RWRMN
WEATHER ROUNDUP FOR MINNESOTA
NATIONAL WEATHER SERVICE TWIN CITIES/CHANHASSEN MN
900 PM CDT WED JUL 30 2014


NOTE: "FAIR" INDICATES FEW OR NO CLOUDS BELOW 12,000 FEET WITH NO
SIGNIFICANT WEATHER AND/OR OBSTRUCTIONS TO VISIBILITY. N/A MEANS
CURRENT SKY AND/OR WEATHER CONDITIONS ARE NOT AVAILABLE.

MNZ060>063-068>070-310300-
   Twin Cities Metro

CITY           SKY/WX    TMP DP  RH WIND       PRES   REMARKS
TWIN CITIES    CLEAR     75  56  51 W6        30.03S
ST PAUL        CLEAR     75  54  47 W9        30.03R
CRYSTAL        CLEAR     74  55  51 W3        30.02S
BLAINE         CLEAR     73  55  53 W3        30.03R
LAKEVILLE      CLEAR     68  57  68 W5        30.04S
EDEN PRAIRIE   CLEAR     72  57  59 W5        30.03S
SOUTH ST PAUL  CLEAR     74  55  50 W5        30.03R
LAKE ELMO      FAIR      70  55  60 W3        30.04R
$$
MNZ001>005-007-008-013>017-022>024-027-028-310300-
   Northwest Minnesota

CITY           SKY/WX    TMP DP  RH WIND       PRES   REMARKS
BEMIDJI        CLEAR     67  55  63 W6        30.04S
HALLOCK        CLEAR     73  61  64 CALM      30.02S
ROSEAU         CLEAR     72  61  68 W6        30.02S
WARROAD        CLEAR     70  63  78 W5        30.01S
THIEF RVR FALL CLEAR     68  57  68 W5        30.04S
CROOKSTON      CLEAR     70  61  73 CALM      30.05R
FOSSTON        CLEAR     64  54  68 CALM      30.06S
DETROIT LAKES  CLEAR     68  59  73 CALM      30.07S
MOORHEAD       PTCLDY    73  61  64 CALM      30.05S
PARK RAPIDS    CLEAR     64  56  75 NW6       30.05F
$$
MNZ006-009>011-018-025>026-310300-
   North Central Minnesota

CITY           SKY/WX    TMP DP  RH WIND       PRES   REMARKS
BAUDETTE       PTCLDY    70  60  70 CALM      30.00F
FLAG ISLAND    CLEAR     73  63  68 NW7       29.98S
INTL FALLS     MOCLDY    68  59  73 W3        29.98S
WASKISH        CLEAR     72  63  73 W7        30.01S
BIG FORK       CLEAR     68  57  68 W2        30.02S
LONGVILLE      CLEAR     63  61  94 CALM      30.04S
GRAND RAPIDS   CLEAR     70  55  60 W6        30.02S
CRANE LAKE     PTCLDY    61  61 100 CALM      29.99S
ORR            CLEAR     64  57  77 CALM      29.97S
COOK           PTCLDY    66  57  72 CALM      30.00R
$$
MNZ012-019>021-037-310300-
   Northeast Minnesota

CITY           SKY/WX    TMP DP  RH WIND       PRES   REMARKS
DULUTH         CLEAR     69  56  62 W7        29.98S
ELY            CLEAR     63  61  94 CALM      29.98S
HIBBING        MOCLDY    70  57  63 W7        30.00R
EVELETH        PTCLDY    68  55  64 W5        30.00S
DULUTH HARBOR  MOCLDY    73  63  68 W6        29.96S
TWO HARBORS    CLEAR     64  57  77 CALM      29.95S
SILVER BAY     CLEAR     63  63 100 CALM      29.95R
GRAND MARAIS     N/A     52  50  93 CALM      29.94F
G MARAIS ARPRT PTCLDY    59  50  72 NW6       29.99S
$$
MNZ029>031-032-039>041-046>048-054>057-064-310300-
   West Central Minnesota

CITY           SKY/WX    TMP DP  RH WIND       PRES   REMARKS
FERGUS FALLS   CLEAR     72  54  53 CALM      30.05S
WHEATON        CLEAR     68  57  68 CALM      30.08S
MORRIS         CLEAR     68  59  73 CALM      30.06S
ALEXANDRIA     CLEAR     69  56  62 W3        30.08S
ELBOW LAKE     FAIR      69  63  81 CALM      30.06S
WADENA         CLEAR     63  55  77 CALM      30.06S
GLENWOOD       CLEAR     66  57  72 W3        30.08S
APPLETON       CLEAR     68  61  77 W3        30.06S
BENSON         CLEAR     66  61  82 CALM      30.06F
ORTONVILLE     CLEAR     72  57  60 CALM      30.07S
MADISON        CLEAR     72  61  68 CALM      30.07S
WILLMAR        FAIR      70  57  64 CALM      30.08S
$$
MNZ033>034-036-042>043-049>051-058-059-310300-
   Central Minnesota

CITY           SKY/WX    TMP DP  RH WIND       PRES   REMARKS
ST CLOUD       CLEAR     71  56  58 NW5       30.04R
SAUK CENTRE    FAIR      68  56  65 NW3       30.07R
PAYNESVILLE    CLEAR     64  58  79 SW3       30.07R
AITKIN         PTCLDY    68  59  73 CALM      30.02S
PINE RIVER     CLEAR     70  57  64 CALM      30.07S
BRAINERD       PTCLDY    70  57  63 W5        30.04S
STAPLES        CLEAR     64  55  72 W5        30.06S
LONG PRAIRIE   FAIR      68  54  60 W3        30.07S
LITTLE FALLS   CLEAR     68  52  56 W3        30.05S
LITCHFIELD     CLEAR     72  59  64 CALM      30.07R
BUFFALO        CLEAR     71  56  60 CALM      30.05S
MAPLE LAKE     CLEAR     68  60  75 CALM      30.05S
$$
MNZ037-044-045-052-053-310300-
   East Central Minnesota

CITY           SKY/WX    TMP DP  RH WIND       PRES   REMARKS
PRINCETON      CLEAR     70  57  64 CALM      30.03S
MORA           CLEAR     68  59  73 CALM      30.04S
CAMBRIDGE      CLEAR     72  57  60 W3        30.01S
RUSH CITY      CLEAR     67  59  75 CALM      30.02S
MOOSE LAKE     CLEAR     68  57  68 W5        29.99S
HINCKLEY       FAIR      70  61  73 CALM      30.01S
CLOQUET        CLEAR     70  55  60 W7        30.00R
MCGREGOR       CLEAR     68  57  68 W3        30.03R
$$
MNZ071>073-080-081-089-090-097-098-310300-
   Southwest Minnesota

CITY           SKY/WX    TMP DP  RH WIND       PRES   REMARKS
MONTEVIDEO     CLEAR     70  55  60 CALM      30.08S
GRANITE FALLS  CLEAR     67  60  78 CALM      30.08S
CANBY          CLEAR     70  60  71 CALM      30.09S
MARSHALL       CLEAR     70  57  64 CALM      30.07S
REDWOOD FALLS  CLEAR     72  56  57 W3        30.06F
OLIVIA         CLEAR     70  61  73 CALM      30.06S
PIPESTONE      CLEAR     70  59  68 CALM      30.10S
WINDOM         CLEAR     70  59  68 CALM      30.09S
WORTHINGTON    CLEAR     70  54  56 CALM      30.11S
JACKSON        CLEAR     63  59  88 CALM      30.10S
TRACY          CLEAR     67  60  75 CALM      30.09S
SLAYTON        CLEAR     69  57  65 CALM      30.11S
$$
MNZ065>067-074>077-082>085-091>093-310300-
   South Central Minnesota

CITY           SKY/WX    TMP DP  RH WIND       PRES   REMARKS
MANKATO        CLEAR     70  55  60 W5        30.06S
NEW ULM        CLEAR     68  63  83 CALM      30.07S
ST JAMES       CLEAR     68  59  73 CALM      30.09R
FAIRMONT       CLEAR     66  52  59 NW3       30.08F
GLENCOE        CLEAR     71  57  61 SW3       30.05S
FARIBAULT      CLEAR     72  55  56 W5        30.06S
OWATONNA       CLEAR     66  57  72 SW3       30.07R
WASECA         CLEAR     63  55  77 SW3       30.08S
ALBERT LEA     CLEAR     70  57  64 CALM      30.07S
$$
MNZ078>079-086>088-094>096-310300-
   Southeast Minnesota

CITY           SKY/WX    TMP DP  RH WIND       PRES   REMARKS
ROCHESTER      CLEAR     65  59  81 W7        30.06S
RED WING       CLEAR     72  57  60 CALM      30.01S
STANTON        CLEAR     69  58  68 W5        30.03S
DODGE CENTER   CLEAR     70  59  68 W6        30.06S
WINONA         CLEAR     73  61  64 CALM      30.02S
AUSTIN         CLEAR     72  57  60 W3        30.07R
PRESTON        CLEAR     67  63  85 W6        30.06S
$$
ABBREVIATIONS USED IN REMARKS
   TC - TEMPERATURES IN CELSIUS
  WCI - WIND CHILL INDEX
   HX - HEAT INDEX
  VSB - VISIBILITY
$$


USA.gov is the U.S. government's official web portal to all federal, state and local government web resources and services.